{"data":{"norad_id":51287,"epoch":"2026-09-18T04:19:03.410976Z","epoch_age_seconds":313574,"freshness":"STALE","line1":"1 51287U 21118E   26261.17990059  .00000116  00000+0  00000+0 0  9999","line2":"2 51287   4.4022  75.9821 0008543 124.6104 235.7171  1.01226776 17261","mean_motion":1.01226776,"eccentricity":0.0008543,"inclination_deg":4.4022,"raan_deg":75.9821,"arg_perigee_deg":124.6104,"mean_anomaly_deg":235.7171,"bstar":0,"rev_number":1726,"period_min":1422.5485162147,"perigee_km":35485.188865029,"apogee_km":35556.777701946,"semimajor_km":41899.120283488,"source":"CELESTRAK","updated_at":"2026-09-21T09:00:08.266901Z"}}